Weather Roundup
Issued by NWS Chicago, IL

Home | Current Version | Previous Version | Graphics & Text | Print | Product List | Glossary On
Versions: 1 2 3 4 5 6 7 8 9 10 11 12 13 14 15 16 17 18 19 20 21 22 23 24 25 26 27 28 29 30 31 32 33 34 35 36 37 38 39 40 41 42 43 44 45 46 47 48 49 50
000
NZUS59 KLOT 290409
HRRLOT

CHICAGO AREA WEATHER ROUNDUP
NATIONAL WEATHER SERVICE CHICAGO/ROMEOVILLE IL
1100 PM CDT THU JUL 28 2016

NOTE: "FAIR" INDICATES FEW OR NO CLOUDS BELOW 12,000 FEET WITH NO
SIGNIFICANT WEATHER AND/OR OBSTRUCTIONS TO VISIBILITY.

* THESE STATIONS ARE NOT UNDER NWS QUALITY CONTROL. THEY ALSO MAY NOT
  REPORT WEATHER SUCH AS PRECIPITATION OR FOG.

ILZ005-006-012>014-019>023-290500-
NORTHEAST ILLINOIS

CITY           SKY/WX    TMP DP  RH WIND       PRES   REMARKS
OHARE          PTCLDY    71  69  93 N6        29.92R
MIDWAY         PTCLDY    75  70  84 N5        29.91S
AURORA         PTCLDY    70  67  90 N3        29.93S FOG
LANSING*       CLEAR     72  70  92 CALM      29.91F FOG
JOLIET*        CLEAR     73  71  95 CALM      29.92S FOG
WAUKEGAN       CLEAR     69  67  93 N6        29.93S
DUPAGE AIRPORT PTCLDY    70  66  87 N5        29.93R
WHEELING       CLEAR     70  68  93 CALM      29.94S
KANKAKEE*      CLEAR     72  69  92 CALM      29.92S
MORRIS*        PTCLDY    71  69  95 CALM      29.92R FOG
LEWIS AIRPORT* PTCLDY    70  67  91 CALM      29.92S FOG
NORTHERLY ISL    N/A     73  70  90 MISG        N/A
$$

WIZ051-052-058>065-066-070>072-290500-
SOUTHEAST WISCONSIN

CITY           SKY/WX    TMP DP  RH WIND       PRES   REMARKS
MILWAUKEE      CLOUDY    68  63  84 N13       29.95S
KENOSHA*       CLOUDY    68  66  93 N7        29.95R
RACINE*        CLOUDY    67  63  87 N10       29.96S
BURLINGTON     CLOUDY    67  64  92 N5        29.95S
WAUKESHA       CLOUDY    63  59  88 NE5       29.98S
$$

INZ001>003-010>013-019-020-290500-
NORTHWEST INDIANA

CITY           SKY/WX    TMP DP  RH WIND       PRES   REMARKS
GARY*          CLEAR     74  74  99 E5        29.92S
MICHIGAN CITY* NOT AVBL
RENSSELAER*    NOT AVBL
VALPARAISO     CLEAR     67  65  93 CALM      29.93S
$$

LMZ740>746-290500-
SOUTHERN LAKE MICHIGAN

STATION/POSITION TIME  SKY/WX   TEMP WIND        PRES    VSBY
                                AIR  DIR/SP/G
                 (UTC)          (F)  (DEG/KT/KT) (MB)    (MI)
HARRISON CRIB    0300            76   50/  6/  6   N/A
BURNHAM HARBOR   0400            73  340/  2/  4   N/A
CALUMET HARBOR   0300                 30/  4/  5   N/A
BURNS HARBOR     0300            75  100/  6/ 13 1013.5R
MICHIGAN CITY    0300            73   60/  5/  5   N/A
$$

ABBREVIATIONS USED IN REMARKS
   TC - TEMPERATURE IN CELSIUS
  WCI - WIND CHILL INDEX
   HX - HEAT INDEX
  VSB - VISIBILITY
$$



USA.gov is the U.S. government's official web portal to all federal, state and local government web resources and services.